Location: Berlin
(52.5171°N, 13.4421°E)
Time: 09:14:18
(UTC+02:00)

ISS - Visible Passes

Search period start: 20 October 2020 00:00
Search period end: 29 October 2020 23:00
Orbit: 418 x 419 km, 51.6° (Epoch: 20 October)

Date Brightness Start Highest point End Pass type
(mag) Time Alt. Az. Time Alt. Az. Time Alt. Az.
23 Oct -1.0 06:53:48 10° S 06:56:08 18° SE 06:58:29 10° E visible
24 Oct -0.8 06:07:06 10° SSE 06:08:37 13° SE 06:10:08 10° ESE visible
25 Oct -2.1 05:54:05 10° SW 05:57:07 32° SSE 06:00:11 10° E visible
26 Oct -1.7 05:07:11 13° SSW 05:09:31 24° SSE 05:12:19 10° E visible
27 Oct -1.4 04:21:45 18° SSE 04:21:57 18° SE 04:24:17 10° E visible
27 Oct -3.1 05:54:58 10° WSW 05:58:15 54° SSE 06:01:34 10° E visible
28 Oct -2.8 05:09:09 26° SSW 05:10:35 42° SSE 05:13:47 10° E visible
29 Oct -2.1 04:23:31 30° SE 04:23:31 30° SE 04:25:59 10° E visible
29 Oct -3.6 05:56:28 13° WSW 05:59:29 73° S 06:02:50 10° E visible
